Simultaneous Nadir Overpasses (SNOs) Predictions

Prediction of SNOs between METOP-B and TERRA Satellite Orbit:

Table of predicted SNOs for the next 14.0 days since TLE Epoch: 9/24/2022
Index Date (METOP-B) Time (METOP-B) Lat,Lon (METOP-B) SZA (METOP-B ) Date (TERRA) Time (TERRA) Lat,Lon (TERRA) SZA (TERRA ) Distance(km) Time Diff (sec)
1 09/26/2022 04:22:17 -81.05, -27.50 95.65 09/26/2022 04:22:42 -81.05, -27.39 95.62 1.91 25
2 09/26/2022 05:12:56 81.07, 140.46 84.45 09/26/2022 05:12:07 81.08, 140.64 84.46 3.20 49
3 09/28/2022 23:56:40 -81.07, 39.34 94.48 09/28/2022 23:56:48 -81.07, 39.22 94.49 2.11 8
4 09/29/2022 00:47:20 81.07,-153.11 85.57 09/29/2022 00:46:14 81.07,-153.13 85.53 0.82 66
5 10/01/2022 18:40:27 81.02, -62.73 86.48 10/01/2022 18:41:30 81.02, -62.59 86.52 2.51 63
6 10/01/2022 19:31:06 -81.05, 105.40 93.41 10/01/2022 19:30:56 -81.05, 105.38 93.42 0.86 10
7 10/04/2022 14:14:51 81.03, 3.99 87.62 10/04/2022 14:15:36 81.04, 4.15 87.67 3.06 45
8 10/04/2022 15:05:30 -81.07, 172.16 92.26 10/04/2022 15:05:02 -81.07, 172.13 92.27 0.47 28
9 10/07/2022 09:49:15 81.03, 70.30 88.71 10/07/2022 09:49:42 81.03, 70.44 88.73 2.37 27



Historial Predications of SNOs between METOP-B and TERRA
